Date String (YYYY-MM-DD hh:mm:ss) UTC,Instrument flags,absolute air pressure of the measurement (hPa),sample flow rate (lpm),inlet stack bypass flow (lpm),air temperature of the measurement (°C),ambient temperature measured by the external sensor (°C),aerosol sample conditioner tube jacket temperature (°C),OPC LED temperature (°C),internal box temperature (°C),relative humidity of the measurement (%),span deviation,mass concentration of particles derived from Lorenz-Mie calculation of OPC scattering (μg/m³),mass concentration of particles derived from Lorenz-Mie calculation of OPC scattering (μg/m³),mass concentration of particles derived from Lorenz-Mie calculation of OPC scattering (μg/m³)
DateTimeUTC,F1_M11,P_M11,Q1_M11,Q2_M11,T1_M11,T2_M11,T3_M11,T4_M11,T5_M11,U1_M11,ZSPAN_M11,X0_M11,X2_M11,X1_M11
2023-11-14 00:00:00,SystemResetWarning,0831.9,5.00,000.00,027.8,026.7,000.0,036.0,029.3,8.7,0000.0,0012.89,0003.40,0002.21
2023-11-14 00:01:00,SystemResetWarning,0831.9,5.00,000.00,027.8,026.8,000.0,036.0,029.4,8.7,0000.0,0012.46,0003.37,0002.19
2023-11-14 00:02:00,SystemResetWarning,0831.9,5.00,000.00,027.9,026.9,000.0,036.1,029.4,8.8,0000.0,0012.54,0003.35,0002.18
2023-11-14 00:03:00,SystemResetWarning,0832.0,5.00,000.00,027.9,026.9,000.0,036.1,029.4,8.8,0000.0,0013.08,0003.30,0002.15
2023-11-14 00:04:00,SystemResetWarning,0832.0,5.00,000.00,027.9,027.0,000.0,036.1,029.5,8.8,0000.0,0012.27,0003.28,0002.14
2023-11-14 00:05:00,SystemResetWarning,0832.0,5.00,000.00,028.0,027.1,000.0,036.1,029.6,8.7,0000.0,0012.39,0003.26,0002.12
2023-11-14 00:06:00,SystemResetWarning,0832.0,5.00,000.00,028.0,027.2,000.0,036.1,029.6,8.7,0000.0,0012.03,0003.20,0002.09
2023-11-14 00:07:00,SystemResetWarning,0832.0,4.99,000.00,028.0,027.2,000.0,036.2,029.6,8.7,0000.0,0012.14,0003.18,0002.08
2023-11-14 00:08:00,SystemResetWarning,0832.0,5.00,000.00,028.1,027.3,000.0,036.2,029.7,8.7,0000.0,0012.31,0003.18,0002.06
2023-11-14 00:09:00,SystemResetWarning,0832.0,4.99,000.00,028.1,027.3,000.0,036.2,029.7,8.6,0000.0,0013.62,0003.22,0002.06
2023-11-14 00:10:00,SystemResetWarning,0832.0,5.00,000.00,028.1,027.4,000.0,036.2,029.7,8.6,0000.0,0013.58,0003.25,0002.08
2023-11-14 00:11:00,SystemResetWarning,0832.0,4.99,000.00,028.2,027.4,000.0,036.3,029.7,8.6,0000.0,0013.44,0003.26,0002.11
2023-11-14 00:12:00,SystemResetWarning,0832.0,5.01,000.00,028.2,027.4,000.0,036.3,029.7,8.6,0000.0,0012.97,0003.25,0002.15
2023-11-14 00:13:00,SystemResetWarning,0832.0,5.00,000.00,028.2,027.4,000.0,036.3,029.7,8.5,0000.0,0012.80,0003.22,0002.17
2023-11-14 00:14:00,SystemResetWarning,0832.0,5.00,000.00,028.2,027.4,000.0,036.4,029.7,8.5,0000.0,0012.20,0003.27,0002.21
2023-11-14 00:15:00,SystemResetWarning,0832.0,5.00,000.00,028.3,027.4,000.0,036.4,029.8,8.5,0000.0,0012.92,0003.30,0002.26
2023-11-14 00:16:00,SystemResetWarning,0832.0,5.01,000.00,028.3,027.5,000.0,036.4,029.8,8.5,0000.0,0012.82,0003.33,0002.31
2023-11-14 00:17:00,SystemResetWarning,0832.0,5.01,000.00,028.3,027.5,000.0,036.4,029.8,8.4,0000.0,0013.63,0003.37,0002.34
2023-11-14 00:18:00,SystemResetWarning,0832.0,5.00,000.00,028.3,027.5,000.0,036.4,029.8,8.4,0000.0,0013.89,0003.36,0002.34
2023-11-14 00:19:00,SystemResetWarning,0832.0,5.01,000.00,028.3,027.5,000.0,036.5,029.8,8.4,0000.0,0013.55,0003.37,0002.33
2023-11-14 00:20:00,SystemResetWarning,0832.0,5.00,000.00,028.3,027.5,000.0,036.5,029.9,8.3,0000.0,0012.54,0003.34,0002.32
2023-11-14 00:21:00,SystemResetWarning,0832.0,4.99,000.00,028.4,027.5,000.0,036.5,029.8,8.2,0000.0,0012.47,0003.31,0002.30
2023-11-14 00:22:00,SystemResetWarning,0832.0,4.99,000.00,028.4,027.4,000.0,036.5,029.8,8.1,0000.0,0013.26,0003.31,0002.27
2023-11-14 00:23:00,SystemResetWarning,0832.0,5.00,000.00,028.4,027.5,000.0,036.6,029.8,8.1,0000.0,0013.51,0003.32,0002.26
2023-11-14 00:24:00,SystemResetWarning,0832.0,5.00,000.00,028.4,027.5,000.0,036.6,029.9,8.1,0000.0,0013.38,0003.32,0002.22
2023-11-14 00:25:00,SystemResetWarning,0832.0,5.00,000.00,028.4,027.5,000.0,036.6,029.9,8.1,0000.0,0014.06,0003.29,0002.19
2023-11-14 00:26:00,SystemResetWarning,0832.0,5.01,000.00,028.4,027.5,000.0,036.6,029.9,8.2,0000.0,0013.80,0003.27,0002.15
2023-11-14 00:27:00,SystemResetWarning,0831.9,5.00,000.00,028.4,027.5,000.0,036.6,029.9,8.1,0000.0,0013.96,0003.23,0002.10
2023-11-14 00:28:00,SystemResetWarning,0831.9,5.00,000.00,028.4,027.5,000.0,036.6,029.9,8.1,0000.0,0013.86,0003.21,0002.07
2023-11-14 00:29:00,SystemResetWarning,0832.0,5.00,000.00,028.4,027.5,000.0,036.7,029.9,8.1,0000.0,0013.09,0003.20,0002.04
2023-11-14 00:30:00,SystemResetWarning,0832.0,5.00,000.00,028.5,027.5,000.0,036.7,029.9,8.2,0000.0,0013.94,0003.18,0002.04
2023-11-14 00:31:00,SystemResetWarning,0831.9,5.00,000.00,028.5,027.6,000.0,036.7,029.9,8.2,0000.0,0013.40,0003.18,0002.05
2023-11-14 00:32:00,SystemResetWarning,0832.0,5.00,000.00,028.5,027.6,000.0,036.7,030.0,8.3,0000.0,0012.99,0003.16,0002.05
2023-11-14 00:33:00,SystemResetWarning,0832.0,5.00,000.00,028.5,027.6,000.0,036.7,030.0,8.3,0000.0,0012.78,0003.13,0002.05
2023-11-14 00:34:00,SystemResetWarning,0832.0,5.00,000.00,028.5,027.6,000.0,036.7,030.0,8.3,0000.0,0013.07,0003.13,0002.04
2023-11-14 00:35:00,SystemResetWarning,0832.0,5.00,000.00,028.5,027.5,000.0,036.7,030.0,8.3,0000.0,0013.28,0003.15,0002.04
2023-11-14 00:36:00,SystemResetWarning,0832.0,4.98,000.00,028.5,025.6,000.0,036.7,029.9,8.3,0000.0,0012.50,0003.18,0002.05
2023-11-14 00:37:00,SystemResetWarning,0832.0,5.02,000.00,028.4,024.0,000.0,036.7,029.6,8.3,0000.0,0012.15,0003.23,0002.09
2023-11-14 00:38:00,SystemResetWarning,0832.0,5.01,000.00,028.2,024.0,000.0,036.6,029.1,8.4,0000.0,0012.23,0003.27,0002.13
2023-11-14 00:39:00,SystemResetWarning,0832.0,4.99,000.00,028.0,024.4,000.0,036.5,028.9,8.4,0000.0,0012.28,0003.31,0002.18
2023-11-14 00:40:00,SystemResetWarning,0832.0,5.00,000.00,027.9,024.9,000.0,036.5,028.9,8.4,0000.0,0012.57,0003.37,0002.23
2023-11-14 00:41:00,SystemResetWarning,0832.0,4.99,000.00,027.9,025.3,000.0,036.4,029.0,8.5,0000.0,0012.16,0003.42,0002.28
2023-11-14 00:42:00,SystemResetWarning,0832.0,4.99,000.00,027.9,025.6,000.0,036.4,029.1,8.5,0000.0,0012.63,0003.45,0002.33
2023-11-14 00:43:00,SystemResetWarning,0832.0,4.99,000.00,027.9,025.9,000.0,036.4,029.2,8.6,0000.0,0012.78,0003.51,0002.37
2023-11-14 00:44:00,SystemResetWarning,0832.0,5.00,000.00,027.9,026.2,000.0,036.3,029.2,8.6,0000.0,0012.29,0003.56,0002.40
2023-11-14 00:45:00,SystemResetWarning,0832.0,5.00,000.00,027.9,026.4,000.0,036.3,029.3,8.6,0000.0,0011.29,0003.57,0002.43
2023-11-14 00:46:00,SystemResetWarning,0832.0,5.01,000.00,027.9,026.5,000.0,036.3,029.3,8.6,0000.0,0011.25,0003.63,0002.48
2023-11-14 00:47:00,SystemResetWarning,0832.0,5.01,000.00,027.9,026.7,000.0,036.3,029.4,8.5,0000.0,0011.87,0003.68,0002.53
2023-11-14 00:48:00,SystemResetWarning,0832.0,5.01,000.00,028.0,026.8,000.0,036.3,029.4,8.5,0000.0,0011.97,0003.71,0002.59
2023-11-14 00:49:00,SystemResetWarning,0832.0,4.98,000.00,028.0,026.9,000.0,036.3,029.5,8.5,0000.0,0012.17,0003.74,0002.64
2023-11-14 00:50:00,SystemResetWarning,0832.0,4.99,000.00,028.0,027.0,000.0,036.3,029.5,8.5,0000.0,0012.55,0003.79,0002.71
2023-11-14 00:51:00,SystemResetWarning,0832.0,5.01,000.00,028.0,027.0,000.0,036.3,029.5,8.4,0000.0,0012.41,0003.83,0002.77
2023-11-14 00:52:00,SystemResetWarning,0832.0,5.01,000.00,028.1,027.0,000.0,036.3,029.5,8.3,0000.0,0012.11,0003.86,0002.82
2023-11-14 00:53:00,SystemResetWarning,0832.0,5.00,000.00,028.1,027.1,000.0,036.3,029.5,8.2,0000.0,0012.10,0003.90,0002.89
2023-11-14 00:54:00,SystemResetWarning,0832.0,5.00,000.00,028.1,027.1,000.0,036.4,029.5,8.2,0000.0,0012.98,0003.97,0002.99
2023-11-14 00:55:00,SystemResetWarning,0832.0,4.99,000.00,028.1,027.1,000.0,036.4,029.6,8.2,0000.0,0013.40,0004.09,0003.10
2023-11-14 00:56:00,SystemResetWarning,0832.0,4.99,000.00,028.1,027.1,000.0,036.4,029.6,8.3,0000.0,0013.64,0004.17,0003.15
2023-11-14 00:57:00,SystemResetWarning,0832.0,5.00,000.00,028.1,027.2,000.0,036.4,029.6,8.3,0000.0,0013.50,0004.15,0003.16
2023-11-14 00:58:00,SystemResetWarning,0832.0,5.00,000.00,028.1,027.2,000.0,036.4,029.6,8.3,0000.0,0013.85,0004.12,0003.15
2023-11-14 00:59:00,SystemResetWarning,0832.0,5.01,000.00,028.2,027.2,000.0,036.4,029.6,8.3,0000.0,0013.98,0004.07,0003.13
